TimeMDT,TemperatureF,Dew PointF,Humidity,Sea Level PressureIn,VisibilityMPH,Wind Direction,Wind SpeedMPH,Gust SpeedMPH,PrecipitationIn,Events,Conditions,WindDirDegrees,DateUTC
12:53 AM,48.9,30.9,50,29.60,10.0,SSE,8.1,-,N/A,,Clear,150,2012-10-20 06:53:00
1:53 AM,48.0,30.0,50,29.59,10.0,SSE,4.6,-,N/A,,Clear,150,2012-10-20 07:53:00
2:53 AM,48.9,30.9,50,29.56,10.0,SSE,10.4,-,N/A,,Clear,150,2012-10-20 08:53:00
3:53 AM,46.9,32.0,56,29.55,10.0,SSE,9.2,-,N/A,,Mostly Cloudy,150,2012-10-20 09:53:00
4:53 AM,48.0,32.0,54,29.54,10.0,SSE,10.4,-,N/A,,Mostly Cloudy,150,2012-10-20 10:53:00
5:53 AM,48.0,32.0,54,29.52,10.0,SSE,11.5,-,N/A,,Mostly Cloudy,150,2012-10-20 11:53:00
6:53 AM,48.0,32.0,54,29.52,10.0,SSE,9.2,-,N/A,,Scattered Clouds,150,2012-10-20 12:53:00
7:53 AM,48.9,32.0,52,29.54,10.0,SSE,6.9,-,N/A,,Overcast,150,2012-10-20 13:53:00
8:53 AM,50.0,37.0,61,29.57,10.0,WNW,5.8,-,0.00,,Mostly Cloudy,300,2012-10-20 14:53:00
9:53 AM,51.1,37.9,61,29.58,10.0,South,3.5,-,N/A,,Overcast,180,2012-10-20 15:53:00
10:53 AM,53.1,36.0,52,29.58,10.0,South,10.4,-,N/A,,Overcast,170,2012-10-20 16:53:00
11:53 AM,57.0,37.0,47,29.56,10.0,South,6.9,-,0.00,,Overcast,170,2012-10-20 17:53:00
12:53 PM,62.1,37.0,39,29.54,10.0,South,9.2,-,N/A,,Overcast,190,2012-10-20 18:53:00
1:53 PM,66.9,37.0,33,29.51,10.0,SSW,6.9,-,N/A,,Partly Cloudy,210,2012-10-20 19:53:00
2:53 PM,64.9,36.0,34,29.52,10.0,WSW,11.5,-,N/A,,Overcast,250,2012-10-20 20:53:00
3:53 PM,64.0,36.0,35,29.53,10.0,WSW,9.2,-,N/A,,Mostly Cloudy,250,2012-10-20 21:53:00
4:53 PM,62.1,39.0,43,29.52,10.0,SSW,8.1,-,N/A,,Partly Cloudy,200,2012-10-20 22:53:00
5:53 PM,57.0,43.0,59,29.55,10.0,SSE,6.9,-,N/A,,Mostly Cloudy,160,2012-10-20 23:53:00
6:53 PM,59.0,37.0,44,29.60,10.0,North,10.4,-,N/A,,Overcast,350,2012-10-21 00:53:00
7:53 PM,50.0,42.1,74,29.67,10.0,NNW,9.2,-,0.02,Rain,Light Rain,340,2012-10-21 01:53:00
8:53 PM,48.9,42.1,77,29.69,10.0,North,16.1,-,0.01,Rain,Light Rain,350,2012-10-21 02:53:00
9:53 PM,48.0,44.1,86,29.74,10.0,NNW,8.1,-,0.00,Rain,Light Rain,330,2012-10-21 03:53:00
10:53 PM,46.9,45.0,93,29.78,4.0,West,4.6,-,0.10,Rain,Rain,280,2012-10-21 04:53:00
11:53 PM,46.0,44.1,93,29.79,6.0,NNW,6.9,-,0.07,Rain,Light Rain,330,2012-10-21 05:53:00